[[{"header":{"parameterUnit":"m.s-1","parameterCategory":1,"la1":30.2991,"la2":30.254,"lo1":-89.0895,"lo2":-89.0444,"dy":0.0017,"dx":0.0017,"nx":28,"ny":28,"refTime":"2025-03-21T03:00:00:Z","depth":0,"parameterNumber":2,"parameterNumberName":"U-component_of_WINDS"},"data":[0,0,0,0,0,0,0,0,0,0,0,0,0,0,0,0,0,0,0,0,0,0,0,0,0,0,0,0,0,0,0,0,0,0,0,0,0,0,0,0,0,0,0,0,0,0,0,0,0,0,0,0,0,0,0,0,0,0,-0.0977,-0.0976,0,-0.0921,-0.092,-0.092,-0.0905,-0.0905,-0.0905,-0.0906,-0.0847,-0.0846,-0.0844,0,0,0,0,0,0,0,0,0,0,0,0,0,-0.107,-0.1069,-0.0977,-0.0976,-0.0975,-0.0921,-0.092,-0.092,-0.0904,-0.0905,-0.0905,-0.0906,-0.0848,-0.0846,-0.0844,0,0,0,0,0,0,0,0,0,0,0,0,0,-0.1024,-0.1068,-0.0977,-0.0961,-0.0959,-0.0921,-0.092,-0.0919,-0.0904,-0.0905,-0.0905,-0.0906,-0.0849,-0.0846,-0.0843,-0.0816,0,0,-0.0835,-0.0834,0,0,0,0,0,0,0,0,-0.1026,-0.102,-0.0964,-0.0962,-0.096,-0.092,-0.0932,-0.0885,-0.0904,-0.0925,-0.0906,-0.0906,-0.0871,-0.0867,-0.0855,-0.0814,-0.0811,-0.0835,-0.0833,-0.0832,-0.0831,0,0,0,0,0,0,0,-0.103,-0.1022,-0.0955,-0.0964,-0.0961,-0.0957,-0.0951,-0.0923,-0.0896,-0.0923,-0.0922,-0.0916,-0.087,-0.0858,-0.0854,-0.081,-0.0835,-0.0832,-0.083,-0.0829,-0.0745,-0.0744,0,0,0,0,0,0,-0.1035,-0.1025,-0.0957,-0.0953,-0.0995,-0.0955,-0.0948,-0.0933,-0.0896,-0.0891,-0.0916,-0.0915,-0.0862,-0.0857,-0.0851,-0.0818,-0.0832,-0.0829,-0.0827,-0.0746,-0.0745,-0.0744,0,0,0,0,0,0,-0.1038,-0.1029,-0.0959,-0.0989,-0.098,-0.0953,-0.0935,-0.0931,-0.0919,-0.089,-0.0886,-0.0908,-0.0862,-0.0855,-0.0825,-0.0816,-0.0828,-0.0825,-0.0746,-0.0745,-0.0745,-0.0751,0,0,0,0,0,0,-0.104,-0.103,-0.102,-0.0989,-0.0978,-0.0934,-0.0935,-0.093,-0.0914,-0.0913,-0.0882,-0.0877,-0.0862,-0.083,-0.0823,-0.0812,-0.0823,-0.0747,-0.0746,-0.0745,-0.0752,-0.0751,-0.075,0,0,0,0,0,-0.1044,-0.1023,-0.1019,-0.1011,-0.0964,-0.0933,-0.0927,-0.0911,-0.0913,-0.0903,-0.0885,-0.0878,-0.0818,-0.0827,-0.0819,-0.0807,-0.0747,-0.0746,-0.0745,-0.0752,-0.0751,-0.075,0,0,0,0,0,0,-0.1054,-0.1019,-0.1014,-0.0983,-0.0961,-0.0931,-0.0917,-0.091,-0.0886,-0.0887,-0.0867,-0.086,-0.0832,-0.0816,-0.0827,-0.078,-0.0783,-0.078,-0.0791,-0.0789,-0.0788,-0.0793,-0.0821,0,0,0,0,0,-0.1052,-0.103,-0.1001,-0.0977,-0.0966,-0.0943,-0.0929,-0.0919,-0.0895,-0.0886,-0.0865,-0.0842,-0.0819,-0.0803,-0.0779,-0.0749,-0.0743,-0.0738,-0.0737,-0.0736,-0.0734,-0.0717,-0.0715,-0.074,-0.074,-0.074,0,0,-0.1049,-0.1028,-0.1015,-0.0978,-0.096,-0.0938,-0.0936,-0.0912,-0.0895,-0.0882,-0.0853,-0.0837,-0.081,-0.0781,-0.0766,-0.0767,-0.0725,-0.0734,-0.0734,-0.0732,-0.0716,-0.0714,-0.0711,-0.0739,-0.0739,-0.0739,0,0,-0.1032,-0.1013,-0.0991,-0.0973,-0.0946,-0.0931,-0.0926,-0.0897,-0.0886,-0.0857,-0.0847,-0.0826,-0.0785,-0.0767,-0.0752,-0.0729,-0.0723,-0.0722,-0.0717,-0.0701,-0.0699,-0.0698,-0.069,-0.0687,-0.072,-0.072,-0.072,0,-0.1031,-0.0997,-0.0981,-0.0958,-0.0942,-0.093,-0.0908,-0.0891,-0.0857,-0.0847,-0.0848,-0.0797,-0.0778,-0.0744,-0.0739,-0.0727,-0.0721,-0.0726,-0.0701,-0.0699,-0.0697,-0.069,-0.0687,-0.072,-0.072,-0.072,-0.072,0,-0.0998,-0.0975,-0.0961,-0.0929,-0.0912,-0.0889,-0.0869,-0.0854,-0.0845,-0.083,-0.0801,-0.0778,-0.075,-0.0741,-0.0732,-0.0706,-0.0707,-0.0705,-0.0707,-0.0695,-0.0688,-0.0685,-0.072,-0.072,-0.072,-0.072,0,0,-0.0986,-0.0946,-0.0941,-0.0927,-0.0896,-0.0878,-0.0855,-0.0828,-0.0815,-0.0793,-0.0773,-0.0739,-0.0738,-0.0721,-0.071,-0.0696,-0.068,-0.0695,-0.0694,-0.0694,-0.0651,-0.0653,-0.065,-0.0675,-0.0675,-0.0674,-0.0653,0,-0.0965,-0.0924,-0.0909,-0.0875,-0.0854,-0.0842,-0.0822,-0.0802,-0.0787,-0.0767,-0.0751,-0.0728,-0.0727,-0.0717,-0.0702,-0.0685,-0.0671,-0.0686,-0.0657,-0.0656,-0.0664,-0.0646,-0.0648,-0.0629,-0.065,-0.065,-0.0649,0,-0.0935,-0.0913,-0.0878,-0.0851,-0.0841,-0.0824,-0.0798,-0.0779,-0.0755,-0.0746,-0.0728,-0.0717,-0.0693,-0.0697,-0.0664,-0.0675,-0.0662,-0.0651,-0.065,-0.0647,-0.0652,-0.0642,-0.0622,-0.062,-0.0644,-0.0645,-0.0645,0,-0.0931,-0.0892,-0.0865,-0.0854,-0.0821,-0.0809,-0.0795,-0.0772,-0.0757,-0.0735,-0.0725,-0.07,-0.0686,-0.0667,-0.065,-0.0655,-0.0619,-0.0621,-0.061,-0.0611,-0.0603,-0.0604,-0.0581,-0.0595,-0.0595,-0.0595,-0.0595,0,-0.0909,-0.0888,-0.0863,-0.0847,-0.0823,-0.0806,-0.0783,-0.0768,-0.0747,-0.0728,-0.0717,-0.0699,-0.0678,-0.0658,-0.0644,-0.0619,-0.0613,-0.0605,-0.0601,-0.0606,-0.0607,-0.0597,-0.0598,-0.0594,-0.0594,-0.0594,-0.0594,0,-0.09,-0.0882,-0.0853,-0.0825,-0.0817,-0.0801,-0.0777,-0.0761,-0.0747,-0.0723,-0.0716,-0.0693,-0.0669,-0.065,-0.0618,-0.0609,-0.0583,-0.0579,-0.0591,-0.0589,-0.0579,-0.0581,-0.055,-0.0545,-0.0562,-0.0561,-0.0561,0,-0.0887,-0.0871,-0.0842,-0.0828,-0.0814,-0.0793,-0.0778,-0.076,-0.0745,-0.0718,-0.0705,-0.068,-0.0659,-0.062,-0.0601,-0.0576,-0.0572,-0.0563,-0.0568,-0.0574,-0.0573,-0.0574,-0.0572,-0.0562,-0.0562,-0.0562,-0.0562,0,-0.0868,-0.086,-0.0839,-0.0815,-0.0797,-0.0778,-0.0757,-0.0747,-0.0726,-0.071,-0.0685,-0.0669,-0.0637,-0.0612,-0.0586,-0.0571,-0.0563,-0.0561,-0.0557,-0.0561,-0.0569,-0.0565,-0.0589,-0.0562,-0.0562,-0.0562,-0.0562,-0.0562,-0.0857,-0.0842,-0.0819,-0.0796,-0.0779,-0.0761,-0.0745,-0.0729,-0.0708,-0.0681,-0.0672,-0.0646,-0.0624,-0.0588,-0.0573,-0.0553,-0.0553,-0.0547,-0.0546,-0.0545,-0.0545,-0.0572,-0.0548,-0.0548,-0.0548,-0.0548,-0.0548,0,-0.0837,-0.0822,-0.0801,-0.0774,-0.0756,-0.0751,-0.0728,-0.0714,-0.0691,-0.0671,-0.0651,-0.0623,-0.0599,-0.0578,-0.0553,-0.0541,-0.0537,-0.0535,-0.0536,-0.0532,-0.0546,-0.0552,-0.0539,-0.0539,-0.0539,-0.0539,-0.0539,-0.0539,-0.0825,-0.08,-0.0789,-0.0756,-0.0741,-0.0716,-0.0704,-0.0687,-0.0671,-0.064,-0.0621,-0.0607,-0.0586,-0.056,-0.0538,-0.0532,-0.0524,-0.0523,-0.0517,-0.053,-0.0531,-0.0532,-0.0538,-0.0521,-0.0521,-0.0504,-0.0504,-0.0504]},{"header":{"parameterUnit":"m.s-1","parameterCategory":1,"la1":30.2991,"la2":30.254,"lo1":-89.0895,"lo2":-89.0444,"dy":0.0017,"dx":0.0017,"nx":28,"ny":28,"refTime":"2025-03-21T03:00:00:Z","depth":0,"parameterNumber":3,"parameterNumberName":"V-component_of_WINDS"},"data":[0,0,0,0,0,0,0,0,0,0,0,0,0,0,0,0,0,0,0,0,0,0,0,0,0,0,0,0,0,0,0,0,0,0,0,0,0,0,0,0,0,0,0,0,0,0,0,0,0,0,0,0,0,0,0,0,0,0,4.5102,4.5102,0,4.5104,4.5104,4.5104,4.5018,4.5016,4.5013,4.5011,4.5014,4.5016,4.5018,0,0,0,0,0,0,0,0,0,0,0,0,0,4.502,4.5022,4.5102,4.5102,4.5102,4.5104,4.5104,4.5104,4.5018,4.5016,4.5013,4.501,4.5013,4.5015,4.5018,0,0,0,0,0,0,0,0,0,0,0,0,0,4.5042,4.5023,4.5102,4.5059,4.5055,4.5104,4.5104,4.5104,4.5019,4.5015,4.5012,4.5009,4.5012,4.5015,4.5018,4.5108,0,0,4.5029,4.503,0,0,0,0,0,0,0,0,4.5041,4.5046,4.5065,4.5062,4.5058,4.5057,4.5076,4.5106,4.502,4.5033,4.5011,4.5007,4.5031,4.5032,4.504,4.5108,4.5108,4.5029,4.5031,4.5032,4.5033,0,0,0,0,0,0,0,4.504,4.5045,4.5103,4.5066,4.5061,4.5039,4.5039,4.5081,4.5051,4.5031,4.5025,4.5027,4.5028,4.5037,4.504,4.5108,4.5029,4.5032,4.5034,4.5035,4.5247,4.5251,0,0,0,0,0,0,4.5044,4.5044,4.5102,4.5103,4.5041,4.5043,4.5043,4.5061,4.505,4.5045,4.503,4.5023,4.5033,4.5036,4.504,4.5142,4.5032,4.5035,4.5037,4.5244,4.5248,4.5252,0,0,0,0,0,0,4.5043,4.505,4.5102,4.5072,4.5077,4.5049,4.507,4.5063,4.5072,4.5049,4.5043,4.5045,4.5031,4.5035,4.5091,4.5141,4.5037,4.504,4.5239,4.5245,4.525,4.5349,0,0,0,0,0,0,4.5041,4.505,4.5085,4.5073,4.5079,4.5155,4.5073,4.5065,4.5078,4.5069,4.5062,4.5057,4.5028,4.5087,4.5094,4.5144,4.5042,4.5235,4.5242,4.5248,4.5341,4.5357,4.5371,0,0,0,0,0,4.5038,4.5113,4.5087,4.5094,4.5121,4.5158,4.5161,4.5126,4.5082,4.5116,4.5101,4.5057,4.5135,4.5093,4.5101,4.5152,4.5231,4.524,4.5248,4.5334,4.5354,4.537,0,0,0,0,0,0,4.5131,4.5111,4.5082,4.5155,4.5159,4.5143,4.5185,4.5149,4.5165,4.5156,4.5112,4.5111,4.5174,4.5169,4.5123,4.5237,4.5175,4.5185,4.5238,4.5256,4.5271,4.527,4.5045,0,0,0,0,0,4.516,4.5192,4.5172,4.5239,4.5242,4.5214,4.5228,4.5201,4.5203,4.5205,4.5194,4.5197,4.5222,4.5239,4.5261,4.534,4.5336,4.5379,4.5394,4.5406,4.5415,4.5455,4.5473,4.5279,4.5279,4.5279,0,0,4.5221,4.5213,4.5236,4.5257,4.5257,4.529,4.5215,4.5254,4.5278,4.521,4.5262,4.5255,4.5255,4.5323,4.5352,4.5321,4.5468,4.5417,4.5427,4.5429,4.5465,4.5483,4.55,4.5285,4.5284,4.5283,0,0,4.5347,4.5346,4.54,4.5401,4.5401,4.5381,4.5394,4.5384,4.5376,4.5427,4.5377,4.5404,4.5448,4.545,4.5457,4.5583,4.5543,4.5591,4.5669,4.5708,4.5723,4.5736,4.5779,4.5795,4.5601,4.5601,4.5601,0,4.5422,4.547,4.5432,4.5473,4.5483,4.5423,4.5477,4.548,4.5488,4.5495,4.546,4.5513,4.5509,4.5576,4.5606,4.5614,4.5627,4.5591,4.5724,4.5737,4.5749,4.5789,4.5806,4.5607,4.5606,4.5605,4.5605,0,4.5561,4.5595,4.5638,4.5646,4.5661,4.5709,4.5677,4.5697,4.5668,4.5652,4.5704,4.5698,4.5716,4.573,4.5704,4.5793,4.5773,4.5732,4.5668,4.5774,4.5811,4.5826,4.5615,4.5613,4.5611,4.561,0,0,4.5746,4.5731,4.5748,4.575,4.5745,4.577,4.5815,4.5832,4.5849,4.5856,4.5891,4.5929,4.589,4.5898,4.5871,4.5906,4.6003,4.586,4.5859,4.5885,4.6099,4.6129,4.6147,4.5977,4.598,4.5982,4.6098,0,4.5867,4.5941,4.5908,4.5985,4.6015,4.5958,4.5996,4.5997,4.5983,4.6006,4.599,4.6017,4.5964,4.5968,4.6,4.5985,4.6045,4.5976,4.6008,4.601,4.6008,4.6167,4.6199,4.6309,4.6113,4.6115,4.6117,0,4.6018,4.6031,4.6111,4.6099,4.611,4.6145,4.6157,4.618,4.618,4.6167,4.6175,4.6139,4.6181,4.6119,4.6175,4.6128,4.6139,4.6134,4.6137,4.6138,4.6069,4.617,4.6343,4.6359,4.614,4.6138,4.6136,0,4.6143,4.618,4.6232,4.6236,4.6223,4.6249,4.6245,4.6241,4.6253,4.6264,4.6271,4.6287,4.6296,4.6309,4.6278,4.6236,4.6338,4.6273,4.6327,4.6328,4.635,4.6349,4.6526,4.636,4.636,4.636,4.6359,0,4.6281,4.6332,4.6287,4.6319,4.6374,4.6335,4.639,4.638,4.6376,4.6405,4.6357,4.6385,4.6343,4.6367,4.6343,4.6392,4.6397,4.6387,4.6379,4.639,4.6391,4.6395,4.6386,4.6364,4.6363,4.6362,4.6361,0,4.6429,4.6401,4.6454,4.6438,4.6435,4.6476,4.6461,4.649,4.6472,4.6508,4.6515,4.6487,4.6512,4.6482,4.6505,4.6489,4.6555,4.6537,4.6555,4.6549,4.6604,4.6598,4.6789,4.6811,4.6633,4.6635,4.6636,0,4.6518,4.6555,4.6542,4.6558,4.6556,4.6582,4.6593,4.6556,4.657,4.6571,4.6599,4.662,4.6634,4.6677,4.6659,4.6675,4.6657,4.6722,4.6659,4.6668,4.6656,4.6653,4.6656,4.6735,4.6737,4.6739,4.674,0,4.6678,4.6662,4.668,4.6694,4.6709,4.6718,4.6723,4.6739,4.6699,4.6717,4.6742,4.6753,4.6775,4.6796,4.6808,4.6803,4.6765,4.676,4.6773,4.6784,4.6792,4.6786,4.6588,4.6756,4.6754,4.6753,4.6752,4.6752,4.6798,4.6827,4.6822,4.6844,4.6844,4.685,4.6875,4.686,4.6879,4.6894,4.6871,4.6901,4.6898,4.6909,4.6909,4.6932,4.6904,4.6923,4.6928,4.6933,4.694,4.6789,4.6934,4.6934,4.6933,4.6933,4.6933,0,4.6954,4.6947,4.6967,4.6976,4.6992,4.6955,4.6958,4.6975,4.7002,4.7002,4.7017,4.7044,4.7064,4.7047,4.7063,4.7084,4.7067,4.7089,4.7087,4.7086,4.6965,4.6951,4.7103,4.7103,4.7103,4.7103,4.7103,4.7103,4.7037,4.7084,4.7068,4.7114,4.7107,4.7136,4.7141,4.7145,4.7145,4.7178,4.7193,4.7182,4.7175,4.719,4.7206,4.72,4.7207,4.7236,4.7224,4.7112,4.7095,4.7079,4.7065,4.7239,4.7239,4.7343,4.7344,4.7345]}]]